Monday, June 27, 2016
18:28 UTC
  |  Log In   |  Register Free
Airport Search:

Branson Airport
(KBBG)

FAA data valid effective May 26 2016 - Jul 21 2016 (unless otherwise noted).

 
 
 
 
 
 
 
 
 
 
 
 
 
 
Summary: Branson (BBG)

Weather Summary


METAR for KBBG is not available. Closest METAR is for KFWB
KBBG  (most recent observation was updatred at 27:17 UTC)
271747Z 00000KT 10SM FEW010 SCT100 OVC200 26/22 A3018

KFWB  (13.9 nm SE)   (most recent observation was updated at 27:17 UTC)
271755Z AUTO 07004KT 10SM CLR 29/23 A3017 RMK AO2

KFLP  (32.9 nm NW)   (most recent observation was updated at 27:18 UTC)
271815Z AUTO 33005KT 10SM FEW018 SCT120 27/21 A3010 RMK AO1

TAF for KBBG is not available.
KBBG
271720Z 2718/2818 03004KT P6SM BKN050 FM281200 00000KT P6SM FEW110 FM281400 VRB03KT P6SM FEW200

KHRO  (16.4 nm NW)   (most recent observation was updatred at 27:17 UTC)
271724Z 2718/2818 32008KT P6SM VCSH SCT060 BKN250 TEMPO 2720/2722 3SM TSRA BR BKN030CB FM272300 03005KT P6SM BKN100 FM280600 VRB03KT P6SM FEW250 FM281500 07006KT P6SM FEW060
GlobalAir.com is loading additional information.
 Current Weather at BBG
77.0 F° (25.0 C°)
Overcast
North winds at 0.0 mph
Pressure:
30.18 in
Humidity:
83%
Wind:
Calm
Dew Point:
71.6 F° (22.0 C°)
Visibility:
10.00 mi
BBG NOAA Radar

Runway Summary

ID Dimensions Surface Instrument Approaches
14/32 150 ft x 7140 ft Bituminous Concrete (grooved), Excellent Condition RNAV (GPS) RWY 14
ILS OR LOC RWY 32
RNAV (GPS) RWY 14
RNAV (GPS) RWY 32

Communications Summary


CTAF128.15
UNICOM122.95
ATIS124.625
WX AWOS-3
GROUND118.4 []
TOWER128.15 []
CLEARANCE DELIVERY118.4

Terminal Procedures Summary


Airport Diagram

Approaches
More Approaches
Special Minimums

Closest Alternate Airports with Instrument Procedures

KPLK - M. Graham Clark - Taney County - 5.8 nm NW from BBG

KFWB - Branson West Municipal - Emerson Field - 13.9 nm NW from BBG

KHRO - Boone County - 16.4 nm SE from BBG

4M1 - Carroll County - 22.4 nm SW from BBG

KFLP - Marion County Regional - 32.8 nm SE from BBG

94K - Cassville Municipal - 35.1 nm NW from BBG

2H2 - Jerry Sumners Sr Aurora Municipal - 35.1 nm NW from BBG

KAOV - Ava Bill Martin Memorial - 36.3 nm NE from BBG

KBPK - Baxter County - 36.6 nm SE from BBG

H34 - Huntsville Municipal - 38.2 nm SW from BBG

Find All Airport Services Find A Hotel Find A Rental Car Find A Golf Course Find A Restaurant $100 Hamburger



FBO's on the Field
FBO Company Facility Photos Services Transportation Aviation Fuel Prices: Prices include tax
Catering Weather Repair Courtesy Rental Type 100LL JetA JetA+ MOGAS 8087
 
Branson Jet Center

This FBO has not yet been rated
FS:Epic
Last Updated: Jun-14
Login to update fuel prices
SS:
Contact Branson Jet CenterMore FBO Information
 
Add another FBO Facility Photos Catering Weather Repair Courtesy Rental Type 100LL JetA JetA+ MOGAS 8087
Services Transportation Aviation Fuel Prices: Prices include tax


model-print
model-print
model-print
model-print